Content
SEND FEEDBACK

Daily
Averages
Monthly
Summary
Finland

HELSINKI, FINLAND


Home > Europe > Finland
Elevation: 184 feet     Latitude: 60 19N     Longitude: 024 58E

WEATHER
 
SELECT A DAY
Number of Records: 312,650;   Date Range: 7/1/96 - 9/21/14
 
SHARE

PRINT THIS DATA

[ ← Previous Day ]
WEATHER ALMANAC - APRIL 1, 2013
[ Next Day → ]
[ °C ]   °F
Weather ElementAverageHighLow
Temperature26.8 °F35.6 °F (5:20 pm)17.6 °F (2:50 am)
Dewpoint19.9 °F23 °F (10:50 am)15.8 °F (1:50 am)
Humidity76.3 %100 % (4:50 am)50 % (9:00 pm)
Barometer29.88 in30.00 in (3:00 am)29.77 in (10:50 pm)
Wind Speed6.6 mph13.8 mph (2:50 pm)
Weather ElementAverage
Visibility6.2 mi
Wind DirectionENE (84.3 °)

Weather ElementTotal
Precipitation---
Heating Degree Days38.4 (Base 65)
Averaged from 51 records on April 1, 2013
WEATHER CONDITIONS BREAKOUT
WIND DIRECTION BREAKOUT
WEATHER BY HOUR - APRIL 1, 2013
[ °C ]   °F
Local TimeTemperatureDewpointHumidityBarometerVisibilityWind DirectionWind SpeedGust SpeedPrecipitationEventsConditions
12:50 AM21.2 °F17.6 °F86 %29.98 in6.2 miNNE (20°)1.2 mphPartly Cloudy
1:20 AM21.2 °F19.4 °F93 %29.98 in6.2 miVariable1.2 mphPartly Cloudy
1:50 AM19.4 °F15.8 °F86 %29.95 in6.2 miCalmPartly Cloudy
2:20 AM19.4 °F15.8 °F86 %29.95 in6.2 miNE (50°)1.2 mphPartly Cloudy
2:50 AM17.6 °F15.8 °F93 %29.95 inENE (60°)2.3 mphClear
3:00 AM18.0 °F17.0 °F91 %30.00 in6.0 miEast (100°)4.5 mph
3:20 AM17.6 °F15.8 °F93 %29.95 in6.2 miENE (70°)1.2 mphPartly Cloudy
3:50 AM19.4 °F17.6 °F93 %29.95 in0.4 miESE (110°)2.3 mph
4:20 AM19.4 °F17.6 °F93 %29.95 in2.5 miVariable1.2 mphOvercast
4:50 AM19.4 °F19.4 °F100 %29.95 in2.5 miVariable2.3 mphOvercast
5:20 AM21.2 °F19.4 °F93 %29.95 in2.2 miNE (50°)2.3 mphOvercast
5:50 AM21.2 °F21.2 °F100 %29.95 in0.9 miNNE (20°)3.5 mphOvercast
6:20 AM21.2 °F21.2 °F100 %29.95 in2.5 miNE (40°)4.6 mphMostly Cloudy
6:50 AM21.2 °F19.4 °F93 %29.92 in3.7 miNNE (20°)3.5 mphMostly Cloudy
7:20 AM21.2 °F19.4 °F93 %29.92 in5.0 miNorth (360°)3.5 mphMostly Cloudy
7:50 AM21.2 °F19.4 °F93 %29.92 in4.3 miVariable3.5 mphMostly Cloudy
8:20 AM19.4 °F19.4 °F100 %29.92 in2.8 miNNE (30°)3.5 mphMostly Cloudy
8:50 AM21.2 °F19.4 °F93 %29.92 in6.2 miVariable3.5 mphMostly Cloudy
9:00 AM21.0 °F19.0 °F88 %29.95 in6.0 miNNE (30°)4.5 mphPartly Cloudy
9:20 AM21.2 °F21.2 °F100 %29.92 inNE (40°)3.5 mphClear
9:50 AM23.0 °F21.2 °F93 %29.92 inVariable3.5 mphClear
10:20 AM24.8 °F21.2 °F86 %29.92 inNE (40°)5.8 mphClear
10:50 AM26.6 °F23.0 °F86 %29.92 inENE (60°)8.1 mphClear
11:20 AM30.2 °F23.0 °F75 %29.89 in6.2 miNE (50°)10.4 mphMostly Cloudy
11:50 AM30.2 °F23.0 °F75 %29.89 in6.2 miNE (40°)9.2 mphMostly Cloudy
12:20 PM30.2 °F23.0 °F75 %29.89 in6.2 miNE (50°)10.4 mphMostly Cloudy
12:50 PM32.0 °F23.0 °F69 %29.86 in6.2 miNNE (30°)10.4 mphMostly Cloudy
1:20 PM32.0 °F21.2 °F64 %29.86 in6.2 miNE (50°)10.4 mphOvercast
1:50 PM32.0 °F23.0 °F69 %29.86 in6.2 miNE (40°)12.7 mphOvercast
2:20 PM33.8 °F19.4 °F56 %29.86 in6.2 miNE (50°)10.4 mphOvercast
2:50 PM33.8 °F21.2 °F60 %29.83 in6.2 miNE (40°)13.8 mphOvercast
3:00 PM34.0 °F23.0 °F53 %29.87 in25.0 miNE (50°)11.2 mphOvercast
3:20 PM33.8 °F19.4 °F56 %29.83 in6.2 miNE (40°)11.5 mphOvercast
3:50 PM33.8 °F19.4 °F56 %29.83 in6.2 miNE (40°)13.8 mphOvercast
4:20 PM33.8 °F21.2 °F60 %29.80 in6.2 miNNE (30°)10.4 mphOvercast
4:50 PM33.8 °F21.2 °F60 %29.80 in6.2 miNNE (30°)12.7 mphOvercast
5:20 PM35.6 °F19.4 °F52 %29.80 in6.2 miNE (40°)11.5 mphOvercast
5:50 PM35.6 °F19.4 °F52 %29.80 in6.2 miNE (40°)11.5 mphOvercast
6:20 PM33.8 °F19.4 °F56 %29.80 in6.2 miNNE (30°)12.7 mphOvercast
6:50 PM32.0 °F21.2 °F64 %29.80 in6.2 miNNE (30°)11.5 mphMostly Cloudy
7:20 PM32.0 °F21.2 °F64 %29.80 in6.2 miNNE (30°)11.5 mphMostly Cloudy
7:50 PM32.0 °F21.2 °F64 %29.80 in6.2 miNNE (30°)9.2 mphMostly Cloudy
8:20 PM32.0 °F19.4 °F60 %29.80 in6.2 miNNE (20°)6.9 mphMostly Cloudy
8:50 PM30.2 °F19.4 °F64 %29.80 in6.2 miNorth (360°)4.6 mphMostly Cloudy
9:00 PM31.0 °F19.0 °F50 %29.83 in25.0 miNNE (20°)6.7 mph
9:20 PM30.2 °F19.4 °F64 %29.80 in6.2 miNNW (340°)4.6 mphMostly Cloudy
9:50 PM30.2 °F19.4 °F64 %29.80 in6.2 miNNW (340°)5.8 mphPartly Cloudy
10:20 PM28.4 °F19.4 °F69 %29.80 inNorth (350°)5.8 mphClear
10:50 PM28.4 °F19.4 °F69 %29.77 inNorth (350°)5.8 mphClear
11:20 PM28.4 °F19.4 °F69 %29.77 inNNW (340°)5.8 mphClear
11:50 PM28.4 °F19.4 °F69 %29.77 inNNW (340°)5.8 mphClear
Hourly data recorded from EFHK, located miles away from Helsinki, Finland







STORIES FROM OUR PARTNERS